Tracking 22441 objects as of 28-Feb-2021
HD Live streaming from Space Station
objects crossing your sky now

DELTA 1 DEB

Track DELTA 1 DEB now!
10-day predictions


NORAD ID: 27578
Int'l Code: 1975-052LF
Perigee: 966.1 km
Apogee: 1,030.6 km
Inclination: 99.7 °
Period: 104.9 minutes
Semi major axis: 7369 km
RCS: 0.0058 m2 (small)
Launch date: June 12, 1975
Source: United States (US)
Launch site: AIR FORCE WESTERN TEST RANGE (AFWTR)

Note: This is SATELLITE DEBRIS
aabbcc
Your satellite tracking list
Your tracking list is empty




NASA's NSSDC Master Catalog

Two Line Element Set (TLE):
1 27578U 75052LF  21059.57260762  .00000550  00000-0  64786-3 0  9994
2 27578  99.7104 287.2225 0043803 154.4439 236.2149 13.72332087993247
Source of the keplerian elements: AFSPC